"startDT [UTC]","vpos","CH4 [ppm]","stdev(CH4) [ppm]","CO2 [ppm]","stdev(CO2) [ppm]","H2O_reported [%]","stdev(H2O_reported)","CavityPressure [torr]","CavityTemp [C]","OutletValve","CH4_dry [ppm]","CO2_dry [ppm]","DasTemp [C]","EtalonTemp [C]","WarmBoxTemp [C]","MPVPosition","T_ECpre [C]","T_EC1 [C]","T_EC2 [C]","p_inlet [hPa]","p_in [hPa]","p_out [hPa]","T_inlet [C]","RH_inlet [%]","dwpt_inlet [C]","T_vent [C]","RH_vent [%]","dwpt_vent [C]","flow_vent [l min-1]","flow_inlet [l min-1]","dwpt_sample [C]","T_room [C]"
2015-09-30 00:00:00,0.0,1.95396,0.00072,391.821,0.075,0.4539,0.0024,140.000,44.999,31725.72130,1.96284,393.991,34.698,45.069,45.001,0.00,0.09,-272.74,-272.80,-9,524,-940,21.5,13.5,-7.6,21.6,13.7,-7.3,5.73,1.98,-1.1,27.0
2015-09-30 00:01:00,0.0,1.95446,0.00065,391.850,0.055,0.4557,0.0021,139.999,45.000,31729.00540,1.96330,394.023,34.776,45.070,45.002,0.00,0.09,-272.74,-272.79,-9,524,-940,21.5,13.5,-7.5,21.6,13.8,-7.2,5.73,2.11,-1.1,27.0
2015-09-30 00:02:00,0.0,1.95429,0.00135,391.780,0.107,0.4587,0.0023,140.000,45.001,31728.65462,1.96326,393.975,34.880,45.070,45.002,0.00,0.09,-272.74,-272.80,-9,524,-940,21.6,13.6,-7.4,21.7,13.8,-7.2,5.73,1.87,-1.1,27.1
2015-09-30 00:03:00,0.0,1.95502,0.00049,391.804,0.057,0.4577,0.0015,139.996,45.001,31730.66620,1.96391,393.989,35.000,45.070,45.002,0.00,0.09,-272.74,-272.80,-8,524,-941,21.6,13.5,-7.5,21.7,13.8,-7.2,5.73,1.80,-1.1,27.1
2015-09-30 00:04:00,0.0,1.95528,0.00039,391.877,0.049,0.4565,0.0017,139.999,45.002,31737.66999,1.96421,394.058,35.128,45.070,45.002,0.00,0.09,-272.74,-272.80,-8,524,-941,21.6,13.5,-7.5,21.7,13.8,-7.2,5.73,2.12,-1.1,27.2
2015-09-30 00:05:00,0.0,1.95561,0.00036,391.922,0.059,0.4561,0.0017,139.998,45.002,31740.76005,1.96446,394.101,35.234,45.070,45.002,0.00,0.09,-272.73,-272.81,-9,524,-941,21.6,13.5,-7.6,21.7,13.7,-7.2,5.73,1.95,-1.1,27.2
2015-09-30 00:06:00,0.0,1.95507,0.00046,391.862,0.059,0.4555,0.0020,140.000,45.002,31747.44758,1.96398,394.039,35.311,45.070,45.001,0.00,0.09,-272.74,-272.80,-9,524,-941,21.6,13.5,-7.5,21.7,13.7,-7.2,5.73,1.77,-1.1,27.3
2015-09-30 00:07:00,0.0,1.95533,0.00051,391.855,0.039,0.4552,0.0019,139.997,45.002,31750.58220,1.96418,394.027,35.361,45.069,45.000,0.00,0.09,-272.74,-272.79,-8,524,-941,21.6,13.5,-7.6,21.7,13.7,-7.2,5.73,2.02,-1.1,27.3
2015-09-30 00:08:00,0.0,1.95555,0.00085,391.857,0.058,0.4541,0.0023,140.000,45.001,31754.73449,1.96446,394.028,35.338,45.068,44.999,0.00,0.09,-272.73,-272.80,-8,524,-942,21.6,13.4,-7.6,21.7,13.7,-7.2,5.73,2.08,-1.1,27.3
2015-09-30 00:09:00,0.0,1.95455,0.00060,391.802,0.075,0.4567,0.0017,140.001,45.000,31754.62902,1.96346,393.984,35.271,45.067,44.999,0.00,0.09,-272.74,-272.80,-9,524,-943,21.6,13.5,-7.5,21.7,13.7,-7.2,5.73,1.94,-1.1,27.3
2015-09-30 00:10:00,0.0,1.95493,0.00086,391.769,0.078,0.4584,0.0021,140.000,44.999,31752.25525,1.96383,393.955,35.191,45.067,44.998,0.00,0.09,-272.74,-272.80,-9,524,-944,21.6,13.6,-7.5,21.7,13.8,-7.2,5.73,1.85,-1.1,27.2
2015-09-30 00:11:00,0.0,1.95558,0.00063,391.821,0.047,0.4578,0.0018,139.997,44.999,31746.48283,1.96449,394.010,35.083,45.066,44.998,0.00,0.10,-272.74,-272.80,-9,524,-942,21.6,13.5,-7.5,21.7,13.8,-7.2,5.73,1.84,-1.1,27.2
2015-09-30 00:12:00,0.0,1.95542,0.00054,391.780,0.050,0.4582,0.0020,140.000,44.998,31742.89492,1.96435,393.966,34.976,45.066,44.998,0.00,0.09,-272.74,-272.80,-12,525,-939,21.6,13.5,-7.5,21.7,13.8,-7.2,5.73,1.88,-1.1,27.1
2015-09-30 00:13:00,0.0,1.95632,0.00046,391.867,0.039,0.4578,0.0015,140.000,44.998,31738.48135,1.96523,394.053,34.880,45.066,44.998,0.00,0.09,-272.75,-272.80,-9,524,-936,21.6,13.6,-7.4,21.7,13.8,-7.2,5.73,1.97,-1.1,27.1
2015-09-30 00:14:00,0.0,1.95635,0.00048,391.892,0.053,0.4597,0.0025,140.001,44.998,31735.23715,1.96533,394.088,34.798,45.067,44.999,0.00,0.09,-272.74,-272.80,-9,525,-940,21.6,13.6,-7.4,21.7,13.8,-7.2,5.73,2.05,-1.1,27.1
2015-09-30 00:15:00,0.0,1.95637,0.00083,391.841,0.102,0.4607,0.0025,139.999,44.998,31729.59671,1.96538,394.044,34.733,45.067,44.999,0.00,0.09,-272.74,-272.79,-9,525,-940,21.6,13.7,-7.4,21.6,13.9,-7.1,5.73,2.03,-1.2,27.1
2015-09-30 00:16:00,0.0,1.95661,0.00046,391.779,0.037,0.4639,0.0021,140.001,44.999,31728.45541,1.96562,393.993,34.708,45.068,45.000,0.00,0.09,-272.74,-272.80,-8,524,-940,21.5,13.8,-7.3,21.6,14.0,-7.1,5.73,1.92,-1.2,27.0
2015-09-30 00:17:00,0.0,1.95780,0.00050,391.925,0.049,0.4622,0.0023,139.998,45.000,31726.02890,1.96677,394.132,34.739,45.069,45.001,0.00,0.09,-272.74,-272.80,-8,524,-940,21.5,13.7,-7.4,21.6,14.0,-7.1,5.73,1.79,-1.2,27.0
2015-09-30 00:18:00,0.0,1.95736,0.00092,391.885,0.083,0.4644,0.0025,140.000,45.000,31728.72059,1.96650,394.106,34.755,45.069,45.001,0.00,0.09,-272.74,-272.79,-8,524,-941,21.5,13.8,-7.3,21.6,14.0,-7.0,5.73,1.91,-1.1,27.1
2015-09-30 00:19:00,0.0,1.95615,0.00070,391.813,0.055,0.4675,0.0021,139.999,45.001,31730.34312,1.96529,394.048,34.798,45.069,45.001,0.00,0.09,-272.75,-272.80,-9,524,-941,21.5,13.9,-7.2,21.6,14.1,-7.0,5.73,2.11,-1.2,27.1
2015-09-30 00:20:00,0.0,1.95628,0.00027,391.796,0.031,0.4683,0.0021,140.000,45.001,31733.51340,1.96540,394.031,34.815,45.070,45.001,0.00,0.09,-272.74,-272.80,-9,524,-941,21.5,13.9,-7.2,21.6,14.2,-6.9,5.73,1.98,-1.2,27.1
2015-09-30 00:21:00,0.0,1.95535,0.00060,391.724,0.073,0.4687,0.0020,139.999,45.001,31736.36812,1.96456,393.966,34.823,45.069,45.001,0.00,0.09,-272.73,-272.80,-9,524,-941,21.5,14.0,-7.2,21.6,14.2,-6.9,5.73,1.80,-1.1,27.1
2015-09-30 00:22:00,0.0,1.95551,0.00058,391.799,0.073,0.4709,0.0018,140.002,45.001,31741.22310,1.96466,394.046,34.813,45.069,45.001,0.00,0.09,-272.74,-272.80,-8,524,-941,21.5,14.0,-7.1,21.6,14.2,-6.8,5.73,1.86,-1.2,27.1
2015-09-30 00:23:00,0.0,1.95605,0.00040,391.768,0.048,0.4702,0.0018,139.999,45.000,31739.31360,1.96521,394.015,34.756,45.069,45.000,0.00,0.09,-272.75,-272.80,-8,524,-940,21.5,14.0,-7.1,21.6,14.2,-6.9,5.73,1.99,-1.2,27.0
2015-09-30 00:24:00,0.0,1.95560,0.00048,391.702,0.038,0.4703,0.0015,140.001,45.000,31738.21778,1.96480,393.946,34.685,45.068,44.999,0.00,0.09,-272.74,-272.80,-8,524,-940,21.5,14.0,-7.1,21.6,14.2,-6.9,5.73,2.05,-1.2,27.0
2015-09-30 00:25:00,0.0,1.95528,0.00064,391.725,0.084,0.4709,0.0011,139.998,44.999,31734.27364,1.96449,393.978,34.625,45.067,44.999,0.00,0.09,-272.74,-272.80,-8,524,-940,21.5,14.0,-7.1,21.6,14.2,-6.8,5.73,2.02,-1.2,27.0
2015-09-30 00:26:00,0.0,1.95379,0.00098,391.633,0.057,0.4740,0.0014,140.001,44.999,31731.94340,1.96300,393.894,34.559,45.067,44.999,0.00,0.09,-272.75,-272.80,-9,524,-940,21.5,14.1,-7.0,21.6,14.3,-6.8,5.73,1.93,-1.2,27.0
2015-09-30 00:27:00,0.0,1.95588,0.00049,391.825,0.050,0.4710,0.0017,140.000,44.999,31727.70609,1.96506,394.073,34.504,45.067,44.999,0.00,0.09,-272.73,-272.80,-9,524,-940,21.4,14.0,-7.1,21.5,14.3,-6.8,5.73,1.82,-1.2,26.9
2015-09-30 00:28:00,0.0,1.95512,0.00058,391.754,0.065,0.4736,0.0023,140.001,44.999,31725.31135,1.96437,394.019,34.522,45.068,45.000,0.00,0.10,-272.74,-272.79,-9,524,-940,21.4,14.1,-7.1,21.5,14.3,-6.8,5.73,1.83,-1.2,26.9
2015-09-30 00:29:00,0.0,1.95653,0.00050,391.876,0.057,0.4725,0.0017,139.998,45.000,31723.96196,1.96573,394.133,34.534,45.068,45.000,0.00,0.09,-272.75,-272.80,-9,524,-940,21.4,14.1,-7.1,21.5,14.3,-6.8,5.73,2.03,-1.2,26.9
2015-09-30 00:30:00,0.0,1.95596,0.00078,391.757,0.076,0.4742,0.0018,139.999,45.000,31726.15841,1.96523,394.024,34.560,45.069,45.001,0.00,0.09,-272.74,-272.80,-8,524,-940,21.4,14.2,-7.1,21.5,14.3,-6.8,5.73,2.09,-1.2,27.0
2015-09-30 00:31:00,0.0,1.95422,0.00162,391.665,0.102,0.4759,0.0018,140.002,45.000,31730.64182,1.96351,393.939,34.605,45.069,45.001,0.00,0.09,-272.73,-272.80,-8,524,-941,21.4,14.2,-7.0,21.5,14.4,-6.7,5.73,1.90,-1.2,26.9
2015-09-30 00:32:00,0.0,1.95522,0.00058,391.732,0.050,0.4757,0.0018,139.998,45.001,31731.67046,1.96451,394.005,34.630,45.069,45.001,0.00,0.09,-272.74,-272.80,-8,524,-941,21.3,14.3,-7.0,21.5,14.4,-6.7,5.73,1.78,-1.2,26.9
2015-09-30 00:33:00,0.0,1.95565,0.00075,391.758,0.064,0.4766,0.0017,140.000,45.001,31734.61259,1.96500,394.038,34.676,45.069,45.001,0.00,0.09,-272.75,-272.81,-9,524,-941,21.3,14.3,-7.0,21.5,14.5,-6.7,5.73,1.98,-1.2,27.0
2015-09-30 00:34:00,0.0,1.95555,0.00084,391.763,0.111,0.4776,0.0013,139.999,45.001,31736.36209,1.96479,394.043,34.689,45.069,45.001,0.00,0.09,-272.74,-272.80,-9,524,-941,21.3,14.3,-6.9,21.5,14.5,-6.7,5.73,2.10,-1.2,27.0
2015-09-30 00:35:00,0.0,1.95597,0.00045,391.823,0.066,0.4771,0.0016,139.996,45.001,31736.84216,1.96533,394.105,34.689,45.069,45.000,0.00,0.09,-272.73,-272.80,-9,524,-941,21.3,14.3,-6.9,21.5,14.5,-6.7,5.73,1.97,-1.2,27.0
2015-09-30 00:36:00,0.0,1.95560,0.00058,391.752,0.068,0.4793,0.0017,139.999,45.000,31738.24958,1.96494,394.043,34.651,45.068,45.000,0.00,0.09,-272.74,-272.81,-9,524,-941,21.3,14.4,-6.9,21.5,14.5,-6.6,5.73,1.85,-1.2,26.9
2015-09-30 00:37:00,0.0,1.95460,0.00067,391.647,0.047,0.4813,0.0025,139.998,45.000,31736.03448,1.96400,393.949,34.604,45.068,44.999,0.00,0.09,-272.74,-272.80,-8,524,-941,21.3,14.5,-6.8,21.5,14.6,-6.6,5.73,1.84,-1.2,26.9
2015-09-30 00:38:00,0.0,1.95577,0.00046,391.745,0.080,0.4809,0.0021,139.997,44.999,31731.95406,1.96515,394.041,34.538,45.067,44.999,0.00,0.10,-272.74,-272.79,-8,524,-940,21.4,14.4,-6.8,21.5,14.6,-6.6,5.73,1.89,-1.2,26.9
2015-09-30 00:39:00,0.0,1.95592,0.00061,391.673,0.087,0.4829,0.0021,140.001,44.999,31730.24267,1.96533,393.977,34.482,45.067,44.999,0.00,0.09,-272.75,-272.80,-8,524,-940,21.4,14.5,-6.8,21.5,14.7,-6.5,5.73,2.00,-1.2,26.9
2015-09-30 00:40:00,0.0,1.95525,0.00047,391.669,0.064,0.4843,0.0029,139.998,44.999,31725.30254,1.96474,393.987,34.436,45.067,44.999,0.00,0.09,-272.75,-272.81,-8,524,-940,21.3,14.6,-6.8,21.5,14.7,-6.5,5.73,2.06,-1.2,26.9
2015-09-30 00:41:00,0.0,1.95616,0.00054,391.781,0.071,0.4839,0.0024,139.999,44.999,31723.47288,1.96563,394.094,34.435,45.067,44.999,0.00,0.09,-272.74,-272.80,-8,524,-940,21.3,14.6,-6.8,21.5,14.7,-6.5,5.73,2.02,-1.2,26.8
2015-09-30 00:42:00,0.0,1.95520,0.00085,391.705,0.076,0.4845,0.0016,139.998,45.000,31722.80778,1.96463,394.018,34.436,45.068,45.000,0.00,0.09,-272.73,-272.80,-9,524,-940,21.3,14.6,-6.7,21.5,14.8,-6.5,5.73,1.85,-1.2,26.8
2015-09-30 00:43:00,0.0,1.95457,0.00040,391.733,0.027,0.4844,0.0019,140.000,45.000,31724.12400,1.96405,394.051,34.463,45.069,45.001,0.00,0.09,-272.74,-272.80,-9,524,-940,21.3,14.6,-6.7,21.5,14.7,-6.5,5.73,1.81,-1.2,26.8
2015-09-30 00:44:00,0.0,1.95463,0.00043,391.686,0.045,0.4843,0.0014,139.999,45.001,31726.50967,1.96409,394.002,34.507,45.069,45.001,0.00,0.09,-272.74,-272.79,-9,524,-941,21.3,14.6,-6.7,21.5,14.7,-6.5,5.73,2.04,-1.2,26.8
2015-09-30 00:45:00,0.0,1.95416,0.00076,391.673,0.048,0.4839,0.0018,140.001,45.001,31731.17661,1.96358,393.984,34.572,45.070,45.002,0.00,0.09,-272.74,-272.80,-8,524,-941,21.3,14.6,-6.7,21.5,14.8,-6.5,5.73,2.09,-1.2,26.9
2015-09-30 00:46:00,0.0,1.95473,0.00063,391.736,0.065,0.4847,0.0015,140.000,45.001,31731.77042,1.96422,394.053,34.618,45.070,45.001,0.00,0.09,-272.74,-272.80,-8,524,-941,21.3,14.6,-6.7,21.5,14.8,-6.5,5.73,1.86,-1.2,26.9
2015-09-30 00:47:00,0.0,1.95418,0.00083,391.695,0.076,0.4866,0.0016,139.998,45.001,31734.53123,1.96364,394.019,34.652,45.069,45.001,0.00,0.09,-272.74,-272.80,-9,523,-941,21.3,14.7,-6.7,21.5,14.8,-6.4,5.73,1.80,-1.2,26.9
2015-09-30 00:48:00,0.0,1.95499,0.00056,391.809,0.043,0.4852,0.0023,140.000,45.001,31737.57493,1.96449,394.129,34.688,45.069,45.001,0.00,0.09,-272.74,-272.80,-9,523,-941,21.3,14.6,-6.7,21.4,14.8,-6.5,5.73,2.00,-1.2,26.9
2015-09-30 00:49:00,0.0,1.95338,0.00115,391.729,0.108,0.4867,0.0023,139.999,45.001,31738.78356,1.96292,394.057,34.688,45.069,45.000,0.00,0.09,-272.74,-272.80,-9,523,-941,21.3,14.7,-6.7,21.4,14.9,-6.4,5.73,2.09,-1.2,26.9
2015-09-30 00:50:00,0.0,1.95283,0.00060,391.667,0.069,0.4897,0.0017,140.003,45.001,31738.76758,1.96239,394.009,34.689,45.068,45.000,0.00,0.09,-272.74,-272.81,-8,524,-941,21.3,14.8,-6.6,21.4,14.9,-6.3,5.73,1.98,-1.2,26.9
2015-09-30 00:51:00,0.0,1.95352,0.00065,391.668,0.055,0.4879,0.0021,140.000,45.000,31741.49795,1.96302,393.999,34.672,45.068,45.000,0.00,0.10,-272.73,-272.80,-8,524,-941,21.3,14.8,-6.6,21.4,15.0,-6.4,5.73,1.83,-1.2,26.9
2015-09-30 00:52:00,0.0,1.95459,0.00056,391.731,0.058,0.4872,0.0018,139.999,44.999,31739.61662,1.96406,394.060,34.629,45.068,44.999,0.00,0.09,-272.73,-272.80,-8,524,-941,21.3,14.7,-6.7,21.4,14.9,-6.4,5.73,1.83,-1.2,26.8
2015-09-30 00:53:00,0.0,1.95428,0.00064,391.780,0.064,0.4860,0.0018,139.998,44.999,31737.76798,1.96379,394.102,34.585,45.067,44.999,0.00,0.09,-272.75,-272.80,-8,524,-941,21.3,14.7,-6.7,21.4,14.9,-6.4,5.73,1.92,-1.2,26.8
2015-09-30 00:54:00,0.0,1.95367,0.00065,391.687,0.064,0.4881,0.0018,140.001,44.999,31733.87691,1.96317,394.019,34.519,45.067,44.999,0.00,0.10,-272.74,-272.80,-8,524,-941,21.3,14.7,-6.7,21.4,14.9,-6.4,5.73,2.03,-1.2,26.8
2015-09-30 00:55:00,0.0,1.95385,0.00063,391.772,0.077,0.4873,0.0019,139.997,44.999,31729.30968,1.96337,394.103,34.502,45.067,44.999,0.00,0.09,-272.74,-272.79,-9,524,-941,21.3,14.7,-6.7,21.4,14.9,-6.4,5.73,2.07,-1.3,26.8
2015-09-30 00:56:00,0.0,1.95290,0.00139,391.636,0.117,0.4897,0.0021,140.000,44.999,31728.44567,1.96246,393.976,34.503,45.067,44.999,0.00,0.09,-272.74,-272.80,-9,523,-941,21.3,14.8,-6.6,21.4,15.0,-6.3,5.73,1.97,-1.2,26.8
2015-09-30 00:57:00,0.0,1.95296,0.00061,391.704,0.097,0.4860,0.0023,139.999,44.999,31727.82557,1.96242,394.026,34.504,45.068,45.000,0.00,0.09,-272.74,-272.80,-9,523,-941,21.2,14.7,-6.7,21.4,14.9,-6.4,5.73,1.80,-1.3,26.8
2015-09-30 00:58:00,0.0,1.95346,0.00081,391.838,0.132,0.4842,0.0016,139.999,45.000,31729.64986,1.96297,394.156,34.554,45.069,45.001,0.00,0.09,-272.75,-272.79,-8,523,-941,21.2,14.6,-6.8,21.4,14.8,-6.4,5.73,1.88,-1.2,26.8
2015-09-30 00:59:00,0.0,1.95270,0.00038,391.600,0.057,0.4862,0.0019,140.000,45.000,31730.18082,1.96215,393.924,34.601,45.069,45.001,0.00,0.09,-272.74,-272.80,-8,524,-941,21.3,14.7,-6.7,21.4,14.9,-6.4,5.73,2.09,-1.3,26.8
2015-09-30 01:00:00,0.0,1.95237,0.00126,391.639,0.102,0.4853,0.0023,140.001,45.001,31733.09415,1.96185,393.956,34.642,45.069,45.001,0.00,0.09,-272.74,-272.81,-8,523,-941,21.2,14.7,-6.7,21.4,14.9,-6.4,5.73,2.03,-1.3,26.9
2015-09-30 01:01:00,0.0,1.95152,0.00187,391.623,0.167,0.4861,0.0022,139.998,45.001,31734.44490,1.96120,393.955,34.691,45.069,45.001,0.00,0.10,-272.74,-272.81,-9,523,-941,21.2,14.7,-6.7,21.4,14.9,-6.4,5.73,1.84,-1.3,26.9
2015-09-30 01:02:00,0.0,1.94900,0.00180,391.347,0.134,0.4960,0.0033,140.000,45.001,31737.05359,1.95847,393.708,34.691,45.069,45.000,0.00,0.10,-272.73,-272.80,-9,523,-941,21.2,15.0,-6.4,21.4,15.1,-6.2,5.73,1.83,-1.3,26.8
2015-09-30 01:03:00,0.0,1.95035,0.00199,391.456,0.137,0.4939,0.0028,139.999,45.000,31737.26864,1.95995,393.815,34.656,45.068,44.999,0.00,0.09,-272.74,-272.80,-9,524,-941,21.2,15.0,-6.5,21.4,15.2,-6.2,5.73,1.95,-1.3,26.8
2015-09-30 01:04:00,0.0,1.95220,0.00065,391.687,0.061,0.4884,0.0025,139.999,45.000,31735.38651,1.96171,394.021,34.603,45.067,44.999,0.00,0.09,-272.74,-272.80,-9,524,-941,21.2,14.8,-6.6,21.4,15.0,-6.3,5.73,2.05,-1.3,26.8
2015-09-30 01:05:00,0.0,1.95268,0.00100,391.739,0.086,0.4871,0.0026,140.000,44.999,31730.49619,1.96216,394.066,34.544,45.067,44.999,0.00,0.09,-272.74,-272.80,-8,524,-941,21.3,14.7,-6.6,21.4,15.0,-6.3,5.73,2.05,-1.3,26.8
2015-09-30 01:06:00,0.0,1.95227,0.00174,391.622,0.169,0.4911,0.0044,139.997,44.999,31726.47493,1.96184,393.970,34.492,45.067,44.999,0.00,0.09,-272.74,-272.80,-8,524,-941,21.3,14.8,-6.6,21.4,15.0,-6.3,5.73,1.96,-1.3,26.8
2015-09-30 01:07:00,0.0,1.95385,0.00052,391.669,0.072,0.4881,0.0026,139.998,44.999,31724.14263,1.96335,394.003,34.446,45.067,44.999,0.00,0.09,-272.74,-272.81,-8,523,-941,21.3,14.8,-6.6,21.4,15.0,-6.3,5.73,1.85,-1.3,26.8
2015-09-30 01:08:00,0.0,1.95387,0.00040,391.734,0.033,0.4858,0.0021,139.999,44.999,31723.42633,1.96335,394.056,34.451,45.068,44.999,0.00,0.10,-272.74,-272.80,-8,523,-941,21.3,14.7,-6.7,21.4,14.9,-6.4,5.73,1.81,-1.3,26.8
2015-09-30 01:09:00,0.0,1.95196,0.00080,391.670,0.057,0.4902,0.0020,139.998,45.000,31723.38759,1.96160,394.015,34.499,45.068,45.000,0.00,0.09,-272.75,-272.80,-8,523,-941,21.3,14.8,-6.6,21.4,15.0,-6.3,5.73,1.97,-1.3,26.8
2015-09-30 01:10:00,0.0,1.94829,0.00166,391.419,0.131,0.4983,0.0047,140.001,45.000,31723.78007,1.95807,393.803,34.531,45.068,45.000,0.00,0.09,-272.75,-272.80,-9,523,-941,21.3,15.1,-6.3,21.4,15.2,-6.2,5.73,2.11,-1.3,26.8
2015-09-30 01:11:00,0.0,1.94792,0.00098,391.376,0.053,0.5007,0.0021,140.001,45.001,31727.26167,1.95766,393.768,34.562,45.069,45.001,0.00,0.09,-272.73,-272.80,-9,523,-941,21.2,15.2,-6.3,21.4,15.4,-6.0,5.73,1.96,-1.3,26.8
2015-09-30 01:12:00,0.0,1.95153,0.00207,391.648,0.141,0.4949,0.0037,139.999,45.001,31727.67263,1.96101,394.008,34.579,45.069,45.001,0.00,0.09,-272.74,-272.79,-9,523,-941,21.2,15.0,-6.5,21.3,15.3,-6.1,5.73,1.80,-1.3,26.8
2015-09-30 01:13:00,0.0,1.95167,0.00220,391.663,0.112,0.4935,0.0037,140.002,45.001,31728.05884,1.96132,394.026,34.610,45.069,45.001,0.00,0.09,-272.74,-272.80,-8,523,-941,21.2,15.0,-6.5,21.3,15.2,-6.2,5.73,1.87,-1.3,26.8
2015-09-30 01:14:00,0.0,1.95113,0.00102,391.602,0.075,0.4939,0.0029,140.000,45.000,31728.54234,1.96081,393.962,34.624,45.069,45.000,0.00,0.09,-272.75,-272.80,-8,523,-941,21.2,15.0,-6.5,21.3,15.2,-6.2,5.73,2.02,-1.3,26.8
2015-09-30 01:15:00,0.0,1.95076,0.00130,391.582,0.084,0.4972,0.0016,139.998,45.000,31727.56549,1.96052,393.960,34.582,45.068,45.000,0.00,0.09,-272.73,-272.80,-8,523,-941,21.2,15.1,-6.4,21.3,15.3,-6.1,5.73,2.07,-1.3,26.7
2015-09-30 01:16:00,0.0,1.94983,0.00153,391.509,0.110,0.4989,0.0024,139.997,45.000,31726.88032,1.95954,393.894,34.542,45.068,45.000,0.00,0.09,-272.74,-272.80,-8,523,-941,21.2,15.2,-6.3,21.3,15.3,-6.1,5.73,1.99,-1.3,26.7
2015-09-30 01:17:00,0.0,1.95007,0.00081,391.549,0.076,0.4999,0.0023,139.999,45.000,31726.43301,1.95975,393.936,34.495,45.068,44.999,0.00,0.09,-272.74,-272.81,-9,523,-941,21.2,15.2,-6.3,21.3,15.4,-6.0,5.73,1.86,-1.3,26.7
2015-09-30 01:18:00,0.0,1.94935,0.00142,391.539,0.106,0.5002,0.0012,139.999,45.000,31725.55215,1.95912,393.930,34.496,45.068,45.000,0.00,0.10,-272.74,-272.80,-9,523,-941,21.2,15.2,-6.3,21.3,15.4,-6.0,5.73,1.81,-1.3,26.7
2015-09-30 01:19:00,0.0,1.95066,0.00091,391.582,0.043,0.4980,0.0019,140.001,45.000,31724.95560,1.96042,393.964,34.502,45.068,45.000,0.00,0.09,-272.74,-272.80,-9,523,-941,21.2,15.1,-6.3,21.3,15.3,-6.1,5.73,1.95,-1.3,26.7
2015-09-30 01:20:00,0.0,1.95183,0.00105,391.692,0.089,0.4958,0.0019,139.997,45.000,31723.86496,1.96135,394.059,34.544,45.068,45.000,0.00,0.09,-272.75,-272.80,-8,523,-941,21.1,15.1,-6.4,21.3,15.3,-6.2,5.73,2.10,-1.3,26.7
2015-09-30 01:21:00,0.0,1.95231,0.00098,391.758,0.062,0.4931,0.0023,140.001,45.000,31726.51693,1.96196,394.115,34.573,45.068,45.000,0.00,0.09,-272.74,-272.81,-8,523,-941,21.2,15.0,-6.5,21.3,15.2,-6.2,5.73,2.02,-1.3,26.7
2015-09-30 01:22:00,0.0,1.94992,0.00195,391.738,0.120,0.4960,0.0026,140.000,45.000,31728.17805,1.95973,394.112,34.608,45.069,45.000,0.00,0.10,-272.73,-272.80,-8,523,-941,21.1,15.1,-6.4,21.3,15.2,-6.2,5.73,1.85,-1.3,26.7
2015-09-30 01:23:00,0.0,1.94558,0.00106,391.394,0.140,0.5000,0.0015,139.999,45.000,31728.17127,1.95537,393.787,34.591,45.069,45.000,0.00,0.09,-272.74,-272.80,-8,523,-941,21.1,15.2,-6.3,21.3,15.4,-6.1,5.73,1.82,-1.3,26.7
2015-09-30 01:24:00,0.0,1.94444,0.00062,391.287,0.081,0.4989,0.0018,140.001,45.000,31728.99669,1.95415,393.670,34.575,45.068,45.000,0.00,0.09,-272.74,-272.80,-8,523,-941,21.1,15.2,-6.3,21.3,15.4,-6.1,5.73,1.95,-1.3,26.7
2015-09-30 01:25:00,0.0,1.94453,0.00046,391.242,0.070,0.4972,0.0018,140.002,45.000,31729.30620,1.95418,393.618,34.560,45.068,45.000,0.00,0.09,-272.74,-272.79,-9,523,-941,21.1,15.2,-6.4,21.3,15.4,-6.1,5.73,2.06,-1.3,26.7
2015-09-30 01:26:00,0.0,1.94512,0.00065,391.341,0.065,0.4984,0.0016,139.999,44.999,31727.22329,1.95482,393.723,34.506,45.068,44.999,0.00,0.09,-272.74,-272.79,-9,523,-941,21.2,15.2,-6.3,21.3,15.4,-6.1,5.73,2.05,-1.3,26.7
2015-09-30 01:27:00,0.0,1.94457,0.00062,391.223,0.066,0.4956,0.0021,140.000,44.999,31725.06313,1.95416,393.588,34.498,45.067,44.999,0.00,0.09,-272.74,-272.81,-9,523,-941,21.1,15.1,-6.4,21.3,15.3,-6.1,5.73,1.94,-1.3,26.7
2015-09-30 01:28:00,0.0,1.94480,0.00066,391.254,0.099,0.4962,0.0023,140.000,45.000,31724.16035,1.95445,393.626,34.500,45.068,45.000,0.00,0.10,-272.73,-272.80,-8,523,-941,21.1,15.1,-6.5,21.2,15.3,-6.2,5.73,1.81,-1.3,26.7
2015-09-30 01:29:00,0.0,1.94526,0.00065,391.154,0.082,0.4926,0.0027,140.001,45.000,31722.86165,1.95479,393.505,34.505,45.068,45.000,0.00,0.10,-272.73,-272.80,-8,523,-941,21.1,15.1,-6.5,21.2,15.3,-6.2,5.73,1.87,-1.3,26.6
2015-09-30 01:30:00,0.0,1.94663,0.00046,391.325,0.067,0.4960,0.0019,139.999,45.000,31723.76810,1.95624,393.691,34.551,45.068,45.000,0.00,0.09,-272.74,-272.81,-8,523,-941,21.1,15.2,-6.4,21.2,15.3,-6.2,5.73,2.07,-1.3,26.6
2015-09-30 01:31:00,0.0,1.94649,0.00096,391.308,0.115,0.4973,0.0027,140.000,45.000,31726.92195,1.95624,393.691,34.590,45.069,45.001,0.00,0.09,-272.74,-272.80,-8,523,-941,21.1,15.2,-6.4,21.2,15.4,-6.1,5.73,2.07,-1.3,26.6
2015-09-30 01:32:00,0.0,1.94692,0.00100,391.261,0.117,0.4932,0.0024,139.999,45.001,31730.28471,1.95640,393.609,34.620,45.069,45.001,0.00,0.09,-272.73,-272.80,-9,523,-941,21.1,15.1,-6.5,21.2,15.3,-6.2,5.73,1.86,-1.3,26.6
2015-09-30 01:33:00,0.0,1.94779,0.00070,391.362,0.066,0.4972,0.0024,140.001,45.001,31731.79407,1.95746,393.738,34.625,45.069,45.001,0.00,0.09,-272.74,-272.80,-9,523,-941,21.1,15.2,-6.4,21.2,15.4,-6.2,5.73,1.81,-1.3,26.6
2015-09-30 01:34:00,0.0,1.94813,0.00039,391.371,0.062,0.4968,0.0021,139.998,45.000,31732.21208,1.95778,393.745,34.602,45.069,45.000,0.00,0.09,-272.75,-272.80,-8,523,-941,21.1,15.2,-6.4,21.2,15.4,-6.1,5.73,1.95,-1.3,26.6
2015-09-30 01:35:00,0.0,1.94810,0.00033,391.373,0.048,0.4962,0.0018,140.000,45.000,31731.88515,1.95777,393.741,34.560,45.068,45.000,0.00,0.10,-272.74,-272.80,-8,523,-941,21.1,15.2,-6.4,21.2,15.4,-6.1,5.73,2.05,-1.3,26.6
2015-09-30 01:36:00,0.0,1.94713,0.00075,391.357,0.129,0.4959,0.0032,140.000,45.000,31728.08695,1.95680,393.729,34.517,45.068,44.999,0.00,0.09,-272.74,-272.79,-8,523,-941,21.1,15.2,-6.4,21.2,15.4,-6.1,5.73,2.06,-1.3,26.6
2015-09-30 01:37:00,0.0,1.94693,0.00057,391.336,0.053,0.4925,0.0020,139.997,44.999,31724.41329,1.95650,393.684,34.501,45.068,44.999,0.00,0.09,-272.74,-272.81,-8,523,-941,21.1,15.1,-6.5,21.2,15.3,-6.2,5.73,1.96,-1.3,26.6
2015-09-30 01:38:00,0.0,1.94691,0.00033,391.430,0.047,0.4950,0.0019,140.000,44.999,31721.54541,1.95655,393.795,34.500,45.068,44.999,0.00,0.10,-272.73,-272.80,-8,523,-941,21.1,15.1,-6.5,21.2,15.3,-6.2,5.73,1.82,-1.3,26.6
2015-09-30 01:39:00,0.0,1.94631,0.00032,391.382,0.062,0.4935,0.0027,139.999,45.000,31721.31787,1.95594,393.743,34.520,45.068,45.000,0.00,0.09,-272.73,-272.80,-8,523,-941,21.1,15.1,-6.5,21.2,15.3,-6.2,5.73,1.85,-1.3,26.6
2015-09-30 01:40:00,0.0,1.94706,0.00057,391.352,0.075,0.4919,0.0023,140.000,45.000,31723.90977,1.95653,393.700,34.562,45.068,45.000,0.00,0.09,-272.75,-272.80,-9,523,-941,21.1,15.0,-6.5,21.2,15.2,-6.3,5.73,2.05,-1.3,26.6
2015-09-30 01:41:00,0.0,1.94608,0.00106,391.292,0.108,0.4923,0.0022,139.997,45.000,31723.32963,1.95573,393.646,34.596,45.069,45.000,0.00,0.09,-272.74,-272.80,-9,523,-941,21.1,15.0,-6.5,21.2,15.2,-6.3,5.73,2.08,-1.4,26.6
2015-09-30 01:42:00,0.0,1.94742,0.00097,391.368,0.107,0.4923,0.0024,140.001,45.001,31725.09856,1.95701,393.719,34.626,45.069,45.001,0.00,0.10,-272.73,-272.80,-8,523,-941,21.1,15.0,-6.5,21.2,15.2,-6.3,5.73,1.87,-1.4,26.7
2015-09-30 01:43:00,0.0,1.94656,0.00051,391.309,0.085,0.4918,0.0020,139.998,45.001,31726.70313,1.95610,393.658,34.635,45.069,45.001,0.00,0.09,-272.74,-272.80,-8,523,-941,21.1,15.1,-6.5,21.2,15.2,-6.3,5.73,1.80,-1.4,26.7
2015-09-30 01:44:00,0.0,1.94679,0.00062,391.248,0.063,0.4917,0.0017,140.000,45.001,31729.98140,1.95634,393.594,34.627,45.069,45.001,0.00,0.10,-272.74,-272.80,-8,523,-941,21.1,15.1,-6.5,21.2,15.2,-6.3,5.73,1.97,-1.4,26.7
2015-09-30 01:45:00,0.0,1.94741,0.00031,391.312,0.061,0.4931,0.0017,139.998,45.001,31731.01570,1.95698,393.668,34.624,45.069,45.000,0.00,0.09,-272.74,-272.80,-8,523,-941,21.1,15.1,-6.5,21.2,15.3,-6.2,5.73,2.08,-1.4,26.7